Location: Astronomy Club of Akron Observatory
(40.9700°N, 81.5606°W)
Time: 11:20:37
(UTC-04:00)

Daily predictions for brighter satellites

Satellite Brightness Start Highest point End
(mag) Time Altitude Azimuth Time Altitude Azimuth Time Altitude Azimuth
Iridium 4 Rocket 4.5 18:54:44 10° SE 18:59:43 32° E 19:04:52 10° NNE
Cosmos 1315 Rocket 3.0 18:56:23 10° N 19:00:25 53° ENE 19:04:27 10° SSE
Cosmos 1484 Rocket 2.9 19:00:55 10° S 19:04:36 77° WSW 19:08:20 10° NNW
Cosmos 1452 Rocket 3.6 19:00:27 10° NNW 19:05:44 85° WSW 19:11:00 10° SSE
Cosmos 44 Rocket 3.2 19:02:20 10° SSW 19:07:02 77° ESE 19:11:44 10° NE
Cosmos 2333 4.4 19:01:54 10° NNW 19:07:32 54° ENE 19:13:10 10° SE
Cosmos 2084 4.2 19:06:41 10° NNW 19:09:57 26° NE 19:13:15 10° ESE
Cosmos 1908 3.2 19:07:34 10° S 19:11:27 64° E 19:15:18 10° NNE
SPOT 3 Rocket 3.9 19:07:16 10° SE 19:12:12 44° ENE 19:17:07 10° N
PSLV R/B 4.2 19:09:36 10° SW 19:12:27 31° SSE 19:15:01 12° E
Cosmos 1703 3.6 19:08:33 10° NNW 19:12:28 70° W 19:16:20 10° S
Cosmos 2237 Rocket 3.4 19:08:50 10° N 19:13:19 23° NE 19:17:47 10° ESE
Cosmos 2237 4.3 19:07:55 10° NNW 19:13:42 88° WSW 19:19:24 10° SSE
Cosmos 2221 2.6 19:09:29 10° S 19:13:42 54° E 19:17:58 10° NNE
Cosmos 1821 Rocket 4.3 19:11:42 10° SSE 19:17:28 44° E 19:23:22 10° NNE
Cosmos 921 Rocket 3.3 19:13:08 10° NNW 19:17:33 73° WSW 19:21:52 10° S
Cosmos 2227 Rocket 3.3 19:16:29 10° SSE 19:20:44 22° E 19:25:00 10° NE
H-2A R/B 4.4 19:20:16 11° E 19:22:20 16° ENE 19:24:47 10° NNE
CZ-2C R/B 4.1 19:18:33 10° N 19:23:01 65° WNW 19:27:24 10° SSW
SKYMED 2 3.5 19:21:02 10° NNE 19:25:22 64° E 19:29:40 10° S
SL-16 R/B 3.9 19:23:39 10° NNE 19:26:25 14° NE 19:28:01 12° ENE
Cosmos 2098 Rocket 3.7 19:22:23 10° SSE 19:27:03 54° E 19:32:58 10° NNE
Cosmos 158 Rocket 4.1 19:22:11 10° SSW 19:27:16 80° WNW 19:32:31 10° NNE
GP-B 3.9 19:27:47 10° N 19:32:09 55° W 19:36:28 10° SSW
Cosmos 2360 Rocket 3.7 19:27:33 10° NW 19:32:47 40° WSW 19:38:01 10° S
Cosmos 1300 3.3 19:29:25 10° SSE 19:32:51 33° E 19:36:19 10° NNE
BREEZE-M DEB (TANK) 3.6 19:33:30 10° W 19:35:05 19° SW 19:36:42 10° S
APEX 4.0 19:33:44 10° SW 19:36:38 37° WNW 19:39:14 10° N
Atlas Centaur 2 4.2 19:36:08 10° SSW 19:37:08 11° SSW 19:38:10 10° S
Gbstr 26 Del rocket 3.5 19:32:33 10° NW 19:37:29 88° NE 19:43:41 10° SE
Cosmos 1980 4.2 19:33:06 10° N 19:38:19 37° ENE 19:43:00 12° ESE
Cosmos 1048 Rocket 4.1 19:34:20 10° SSW 19:39:27 75° WNW 19:44:35 10° NNE
ALOS 2.3 19:35:16 10° SSE 19:39:49 56° ENE 19:44:24 10° N
FENGYUN 3A 3.7 19:36:56 10° SSE 19:42:13 59° ENE 19:47:33 10° N
Meteor 2-10 4.1 19:39:07 10° SSE 19:43:56 48° E 19:48:52 10° NNE
Abrixas 3.3 19:45:35 10° W 19:47:24 24° NNW 19:47:49 22° N
Cosmos 2123 Rocket 4.1 19:42:55 10° N 19:48:59 50° ENE 19:55:04 10° SSE
Cosmos 2251 Rocket 4.1 19:45:26 10° SSE 19:50:07 33° E 19:54:09 13° NE
COSMOS 2428 3.1 19:44:57 10° NNW 19:50:35 66° WSW 19:56:12 10° S
Cosmos 1605 Rocket 4.2 19:46:25 10° SSE 19:52:04 42° E 19:57:44 10° NNE
Cosmos 2219 3.5 19:47:01 10° SSW 19:52:44 72° WNW 19:58:29 10° NNE
Cosmos 2333 Rocket 2.2 19:47:38 10° NNW 19:53:23 69° ENE 19:59:07 10° SSE
NOSS 0 Rocket 3.9 19:49:23 10° NNW 19:55:32 65° ENE 20:01:38 10° SE
Cosmos 2297 Rocket 2.6 19:52:25 10° S 19:57:34 37° ESE 20:00:57 19° NE
Cosmos 1726 2.4 19:54:32 10° SSW 19:58:11 68° W 20:01:52 10° N
Hubble Space Telescope 3.0 19:57:22 10° SSW 19:59:15 13° S 20:00:30 11° SSE
USA 267 4.4 20:04:43 21° ESE 20:04:53 21° ESE 20:09:38 10° S
Sich 1 2.9 20:00:47 10° N 20:05:12 82° E 20:09:37 10° S
SAR-Lupe-3 4.4 20:02:11 10° NNE 20:05:46 72° ESE 20:09:19 10° S
NOAA 12 4.2 20:00:34 10° S 20:05:51 78° WSW 20:11:13 10° NNW
Cosmos 2082 3.9 20:03:33 10° S 20:08:58 46° ESE 20:12:12 23° NE
Thor Agena Rocket 3.4 20:06:37 10° NNE 20:11:42 69° ESE 20:16:43 10° S
Cosmos 1331 Rocket 3.8 20:07:18 10° NNW 20:12:32 72° ENE 20:16:38 16° SSE
COSMO-SKYMED 1 4.1 20:09:19 10° N 20:13:20 37° WNW 20:17:19 10° SW
Resurs 01 Rocket 3.6 20:21:17 15° NNE 20:21:17 15° NNE 20:22:15 10° NNE
Cosmos 2219 Rocket 2.6 20:13:21 10° NNW 20:18:53 62° WSW 20:24:24 10° S
Abrixas rocket 3.5 20:21:37 10° NW 20:23:57 33° NNW 20:23:57 33° NNW
FengYun 1-2 T 4.1 20:21:33 10° SSE 20:27:02 86° ENE 20:32:33 10° NNW
BREEZE-M DEB (TANK) 3.2 20:20:25 10° WNW 20:29:08 53° N 20:29:58 46° NE
CZ-4C R/B 3.5 20:24:56 10° WSW 20:29:50 37° NW 20:35:25 10° NNE
Cosmos 1666 Rocket 4.4 20:28:59 10° NNW 20:33:10 48° W 20:37:18 10° SSW
Cosmos 2228 Rocket 3.0 20:29:17 10° S 20:33:49 77° E 20:38:24 10° N
Cosmos 1328 Rocket 3.5 20:31:12 10° S 20:35:36 82° W 20:40:00 10° N
Cosmos 1633 Rocket 3.7 20:32:35 10° NNW 20:36:55 55° W 20:41:14 10° S
Meteor 2-2 Rocket 4.3 20:31:49 10° SSW 20:37:30 76° W 20:43:10 10° N
BREEZE-M R/B 3.6 20:37:25 10° WSW 20:39:11 40° W 20:39:11 40° W
Cosmos 1302 Rocket 3.8 20:37:28 10° NNW 20:42:43 76° ENE 20:42:54 75° E
Meteor 1-27 4.1 20:42:34 10° S 20:48:16 80° E 20:54:06 10° NNE
H-2A R/B 4.2 20:55:28 33° SW 20:56:16 37° W 20:59:56 10° NNW
Cosmos 2237 Rocket 2.7 20:52:11 10° NNW 20:57:45 56° WSW 21:00:17 31° S
Lacrosse 5 rocket 4.1 20:59:43 10° NNW 21:00:02 11° N 21:00:02 11° N
MOS 1-B Rocket 3.8 21:03:12 70° S 21:03:55 85° WSW 21:10:14 10° NNW
Cosmos 2227 Rocket 2.9 20:58:53 10° SW 21:04:23 51° WNW 21:08:05 20° N
SL-16 R/B 2.8 21:05:46 10° NNW 21:09:56 49° N 21:09:56 49° N
ATLAS 5 CENTAUR R/B 4.4 21:15:44 10° N 21:17:12 14° N 21:17:12 14° N
Cosmos 2297 Rocket 3.7 21:36:37 10° WSW 21:41:38 32° WNW 21:42:52 29° NNW
BREEZE-M DEB (TANK) 4.3 21:33:51 10° WNW 21:42:21 44° W 21:42:21 44° W
